Flag for Norway Weather past 2 weeks in Rygge, Norway

Now
26 °F

Fog.


Feels Like: 26 °F
Forecast: 30 / 41 °F
Wind: No wind

Location: Rygge

Current Time: Jan 25, 2015 at 12:10:09 PM

Latest Report: Jan 25, 2015 at 11:00 AM


Visibility: 2 mi

Pressure: 30.13 "Hg

Humidity: 99%

Dew point: 26 °F

Location of RyggeLocation

Historic Weather in Rygge — Graph

°F

Rygge temperature yesterday

Maximum temperature yesterday: 36 °F (at 12:00 AM)
Minimum temperature yesterday: 29 °F (at 7:00 PM)
Average temperature yesterday: 33 °F

Past Weeks' High & Low Weather Summary

 TemperatureHumidityPressure
High44 °F (Jan 16, 1:00 PM)100% (Jan 10, 10:00 AM)30.26 "Hg (Jan 10, 10:00 AM)
Low12 °F (Jan 23, 8:00 AM)58% (Jan 10, 9:00 PM)28.38 "Hg (Jan 10, 6:00 PM)
Average33 °F87%29.56 "Hg
* Reported Jan 10 10:00 AM — Jan 25 10:00 AM, Rygge, Weather by CustomWeather, © 2014

Note: Actual official high and low records may vary slightly from our data, if they occured in-between our weather recording intervals... More about our weather records

Advertising

Rygge weather history for previous 24 hours

 ConditionsComfort  
Time TempWeatherWind HumidityBarometerVisibility
10:00 AM
Jan 25
26 °FFog.1 mph99%30.11 "Hg1 mi
9:00 AM26 °FOvercast.1 mph99%30.10 "Hg1 mi
8:00 AM26 °FLow clouds.3 mph99%30.07 "Hg1 mi
7:00 AM27 °FOvercast.2 mph99%30.06 "Hg3 mi
6:00 AM28 °FOvercast.2 mph99%30.03 "Hg1 mi
5:00 AM28 °FLow clouds.1 mph99%30.00 "Hg1 mi
3:00 AM29 °FLow clouds.1 mph100%29.96 "Hg0 mi
2:00 AM29 °FLow clouds.No wind100%29.93 "Hg1 mi
1:00 AM30 °FLow clouds.1 mph100%29.91 "Hg0 mi
12:00 AM30 °FOvercast.2 mph100%29.89 "Hg0 mi
11:00 PM
Jan 24
29 °FLow clouds.1 mph99%29.88 "Hg0 mi
9:00 PM31 °FLow clouds.1 mph99%29.83 "Hg0 mi
8:00 PM30 °FLow clouds.No wind100%29.81 "Hg0 mi
7:00 PM29 °FPassing clouds.No wind100%29.80 "Hg0 mi
6:00 PM31 °FPassing clouds.1 mph99%29.78 "Hg0 mi
5:00 PM32 °FFog.1 mph99%29.76 "Hg1 mi
4:00 PM33 °FDense fog.5 mph100%29.74 "Hg1 mi
3:00 PM34 °FDense fog.2 mph98%29.72 "Hg1 mi
2:00 PM34 °FFog.5 mph97%29.70 "Hg1 mi
1:00 PM33 °FLow clouds.6 mph98%29.70 "Hg2 mi
12:00 PM33 °FFreezing rain. Low clouds.5 mph98%29.70 "Hg2 mi
Weather by CustomWeather, © 2014

See weather overviewHow to use our weather pages